EUTELSAT 7C

Last updated on Oct. 23, 2020, 5:56 a.m. UTC

1 44334U 19034B   20296.82719758  .00000034  00000-0  00000-0 0  9998
2 44334   0.0095 237.0938 0003429 313.7640 145.6936  1.00272693  5423
UTC
Height (km)
Latitude
Longitude
Inclination
Orbital Period
UTC large
Height (km)
Speed (km/s)
/
Latitude / Longitude
Inclination (degrees)
Orbital Period (minutes)
Azimuth
Elevation
Range (km)
Doppler Factor
iOS Compass Heading
iOS Angle

Next 30 passes for location: Hong Kong

Rise time Rise Azimuth (degrees) Set time Set Azimuth (degrees) Duration Max altitude (degrees)

No matching passes for this satellites